Date String (YYYY-MM-DD hh:mm:ss) UTC,Instrument flags,Ambient pressure (hPa),Sample flow (lpm),Bypass flow (lpm),Sample temperature (°C),Ambient temperature (°C),ASC tube jacket temperature (°C),LED temperature (°C),Box temperature (°C),Sample RH (%),Span deviation,Mass concentration (μg/m³),Mass concentration (μg/m³),Mass concentration (μg/m³)
DateTimeUTC,F1_M11,P_M11,Q1_M11,Q2_M11,T1_M11,T2_M11,T3_M11,T4_M11,T5_M11,U1_M11,ZSPAN_M11,X2_M11,X0_M11,X1_M11
2023-02-10 11:00:00,,0833.1,4.97,0.00,21.7,20.7,00.0,30.5,23.2,06.5,0000.0,0002.50,0005.25,0002.14
2023-02-10 11:01:00,,0833.1,5.00,0.00,21.6,20.2,00.0,30.5,23.1,06.6,0000.0,0002.48,0005.17,0002.14
2023-02-10 11:02:00,,0833.1,4.99,0.00,21.5,19.8,00.0,30.5,23.0,06.6,0000.0,0002.48,0005.19,0002.14
2023-02-10 11:03:00,,0833.0,5.06,0.00,21.5,19.4,00.0,30.5,22.8,06.7,0000.0,0002.50,0005.20,0002.14
2023-02-10 11:04:00,,0833.1,4.97,0.00,21.4,19.6,00.0,30.4,22.8,06.7,0000.0,0002.50,0004.45,0002.14
2023-02-10 11:05:00,,0833.0,5.03,0.00,21.5,20.9,00.0,30.4,23.2,06.7,0000.0,0002.47,0003.55,0002.14
2023-02-10 11:06:00,,0833.0,4.98,0.00,21.6,22.0,00.0,30.4,23.5,06.7,0000.0,0002.41,0003.49,0002.10
2023-02-10 11:07:00,,0833.1,5.02,0.00,21.8,22.6,00.0,30.4,23.7,06.7,0000.0,0002.38,0003.40,0002.07
2023-02-10 11:08:00,,0833.0,5.00,0.00,21.8,21.8,00.0,30.5,23.5,06.7,0000.0,0002.34,0003.33,0002.05
2023-02-10 11:09:00,,0833.0,5.01,0.00,21.7,21.1,00.0,30.5,23.3,06.7,0000.0,0002.30,0003.26,0002.03
2023-02-10 11:10:00,,0833.0,4.99,0.00,21.7,20.5,00.0,30.5,23.2,06.7,0000.0,0002.27,0003.16,0002.02
2023-02-10 11:11:00,,0832.9,4.96,0.00,21.6,20.0,00.0,30.5,23.1,06.8,0000.0,0002.24,0002.98,0002.01
2023-02-10 11:12:00,,0832.9,5.00,0.00,21.5,19.6,00.0,30.5,22.9,06.8,0000.0,0002.25,0003.01,0002.00
2023-02-10 11:13:00,,0832.8,5.01,0.00,21.5,19.3,00.0,30.5,22.8,06.9,0000.0,0002.25,0003.01,0002.00
2023-02-10 11:14:00,,0832.9,4.96,0.00,21.5,20.1,00.0,30.4,23.0,06.9,0000.0,0002.25,0003.01,0001.98
2023-02-10 11:15:00,,0832.9,5.00,0.00,21.6,21.4,00.0,30.4,23.4,06.9,0000.0,0002.30,0003.22,0001.98
2023-02-10 11:16:00,,0832.9,4.99,0.00,21.7,22.4,00.0,30.4,23.7,06.9,0000.0,0002.27,0003.13,0001.96
2023-02-10 11:17:00,,0832.8,4.95,0.00,21.8,22.3,00.0,30.5,23.7,06.8,0000.0,0002.28,0003.26,0001.97
2023-02-10 11:18:00,,0832.8,5.05,0.00,21.8,21.5,00.0,30.5,23.5,06.8,0000.0,0002.27,0003.38,0001.97
2023-02-10 11:19:00,,0832.8,4.97,0.00,21.7,20.9,00.0,30.5,23.3,06.9,0000.0,0002.27,0003.64,0001.95
2023-02-10 11:20:00,,0832.8,5.00,0.00,21.7,20.3,00.0,30.6,23.2,06.9,0000.0,0002.26,0003.68,0001.92
2023-02-10 11:21:00,,0832.8,5.00,0.00,21.6,19.8,00.0,30.5,23.0,06.9,0000.0,0002.27,0003.84,0001.88
2023-02-10 11:22:00,,0832.8,4.99,0.00,21.5,19.5,00.0,30.5,22.9,07.0,0000.0,0002.25,0003.85,0001.86
2023-02-10 11:23:00,,0832.8,4.99,0.00,21.5,19.5,00.0,30.5,22.9,07.0,0000.0,0002.23,0003.84,0001.84
2023-02-10 11:24:00,,0832.9,4.98,0.00,21.6,20.7,00.0,30.5,23.2,07.0,0000.0,0002.20,0003.79,0001.82
2023-02-10 11:25:00,,0833.0,4.99,0.00,21.7,21.8,00.0,30.4,23.5,07.0,0000.0,0002.16,0003.74,0001.80
2023-02-10 11:26:00,,0833.0,4.99,0.00,21.8,22.0,00.0,30.5,23.6,07.0,0000.0,0002.07,0003.51,0001.77
2023-02-10 11:27:00,,0833.0,5.02,0.00,21.7,21.3,00.0,30.5,23.4,07.0,0000.0,0002.08,0003.46,0001.75
2023-02-10 11:28:00,,0833.0,4.99,0.00,21.7,20.7,00.0,30.5,23.3,07.0,0000.0,0002.09,0003.45,0001.74
2023-02-10 11:29:00,,0832.9,5.03,0.00,21.6,20.1,00.0,30.5,23.2,07.0,0000.0,0002.05,0003.27,0001.71
2023-02-10 11:30:00,,0832.9,5.00,0.00,21.6,19.8,00.0,30.5,23.0,07.0,0000.0,0002.03,0003.04,0001.69
2023-02-10 11:31:00,,0833.0,4.96,0.00,21.5,19.4,00.0,30.5,22.9,07.0,0000.0,0002.03,0002.96,0001.70
2023-02-10 11:32:00,,0833.0,4.96,0.00,21.5,20.1,00.0,30.5,23.0,07.0,0000.0,0002.00,0002.84,0001.71
2023-02-10 11:33:00,,0833.1,4.98,0.00,21.6,21.3,00.0,30.4,23.4,07.0,0000.0,0002.01,0002.81,0001.72
2023-02-10 11:34:00,,0833.1,4.96,0.00,21.7,22.2,00.0,30.4,23.6,06.9,0000.0,0001.98,0002.69,0001.72
2023-02-10 11:35:00,,0833.0,4.98,0.00,21.8,21.8,00.0,30.5,23.6,06.9,0000.0,0002.00,0002.73,0001.71
2023-02-10 11:36:00,,0833.1,4.99,0.00,21.8,21.2,00.0,30.5,23.4,06.9,0000.0,0001.98,0002.68,0001.71
2023-02-10 11:37:00,,0833.1,4.94,0.00,21.7,20.7,00.0,30.5,23.3,06.9,0000.0,0001.99,0002.72,0001.72
2023-02-10 11:38:00,,0833.0,4.98,0.00,21.7,20.2,00.0,30.5,23.2,06.9,0000.0,0001.97,0002.78,0001.72
2023-02-10 11:39:00,,0833.0,5.01,0.00,21.6,19.9,00.0,30.5,23.1,06.9,0000.0,0001.95,0002.70,0001.72
2023-02-10 11:40:00,,0833.0,5.00,0.00,21.5,19.6,00.0,30.5,23.0,07.0,0000.0,0001.99,0002.77,0001.73
2023-02-10 11:41:00,,0833.0,4.96,0.00,21.5,20.1,00.0,30.5,23.1,07.0,0000.0,0001.96,0002.63,0001.74
2023-02-10 11:42:00,,0833.0,4.98,0.00,21.6,21.4,00.0,30.4,23.4,07.0,0000.0,0001.96,0002.69,0001.74
2023-02-10 11:43:00,,0833.1,5.01,0.00,21.8,22.5,00.0,30.4,23.7,06.9,0000.0,0001.96,0002.74,0001.73
2023-02-10 11:44:00,,0833.1,4.97,0.00,21.9,22.8,00.0,30.5,23.8,06.9,0000.0,0001.96,0002.73,0001.73
2023-02-10 11:45:00,,0833.1,5.06,0.00,21.9,22.1,00.0,30.6,23.7,06.9,0000.0,0001.99,0002.79,0001.72
2023-02-10 11:46:00,,0833.0,4.95,0.00,21.9,21.4,00.0,30.6,23.6,06.9,0000.0,0001.96,0002.73,0001.72
2023-02-10 11:47:00,,0833.0,5.03,0.00,21.8,20.9,00.0,30.6,23.4,06.9,0000.0,0001.98,0002.75,0001.73
2023-02-10 11:48:00,,0833.0,4.94,0.00,21.8,20.5,00.0,30.6,23.4,06.9,0000.0,0001.99,0002.77,0001.73
2023-02-10 11:49:00,,0833.1,5.04,0.00,21.7,20.2,00.0,30.6,23.3,07.0,0000.0,0002.03,0002.76,0001.72
2023-02-10 11:50:00,,0833.1,4.95,0.00,21.7,20.0,00.0,30.6,23.2,07.0,0000.0,0002.06,0002.90,0001.74
2023-02-10 11:51:00,,0833.0,5.04,0.00,21.7,19.8,00.0,30.6,23.2,07.0,0000.0,0002.05,0002.90,0001.75
2023-02-10 11:52:00,,0833.0,4.94,0.00,21.6,20.1,00.0,30.6,23.2,07.0,0000.0,0002.11,0003.44,0001.78
2023-02-10 11:53:00,,0833.0,5.02,0.00,21.7,21.3,00.0,30.5,23.5,07.0,0000.0,0002.14,0003.65,0001.79
2023-02-10 11:54:00,,0833.0,5.02,0.00,21.8,22.3,00.0,30.5,23.7,06.9,0000.0,0002.20,0003.71,0001.82
2023-02-10 11:55:00,,0833.1,4.96,0.00,21.9,22.3,00.0,30.6,23.8,06.9,0000.0,0002.25,0004.01,0001.86
2023-02-10 11:56:00,,0833.0,5.02,0.00,21.9,21.7,00.0,30.6,23.7,06.9,0000.0,0002.28,0005.35,0001.89
2023-02-10 11:57:00,,0833.0,5.05,0.00,21.9,21.2,00.0,30.7,23.6,06.9,0000.0,0002.31,0006.03,0001.92
2023-02-10 11:58:00,,0833.0,4.99,0.00,21.9,20.7,00.0,30.7,23.5,06.9,0000.0,0002.37,0006.16,0001.95
2023-02-10 11:59:00,,0833.0,5.03,0.00,21.8,20.4,00.0,30.7,23.4,06.9,0000.0,0002.43,0006.31,0002.00
